Location: Sweet Grass
(48.9965°N, 111.9649°W)
Time: 16:43:59
(UTC+00:00)

DX 1 - Pass Details

Date: 11 April 2023
Orbit: 615 x 625 km, 98.4° (Epoch: 04 June)

Event Time Altitude Azimuth Distance (km) Brightness Sun altitude
Rises 06:34:37 0° 8° (N) 2,900 ? -31.5°
Reaches altitude 10° 06:36:53 10° 2° (N) 1,991 ? -31.6°
Enters shadow 06:39:27 31° 338° (NNW) 1,105 ? -31.7°
